Weather History for Fallon NAS, NV

Change the Weather History Date:

Sunday, November 14, 2010

  Actual Average Record
Temperature  
Mean Temperature 44 °F -  
Max Temperature 59 °F 52 °F 72 °F (1941)
Min Temperature 30 °F 25 °F 1 °F (1930)
Degree Days  
Heating Degree Days 20    
Moisture  
Dew Point 34 °F    
Average Humidity 65    
Maximum Humidity 86    
Minimum Humidity 45    
Precipitation  
Precipitation 0.00 in - - ()
Sea Level Pressure  
Sea Level Pressure 30.18 in    
Wind  
Wind Speed 5 mph (SSW)    
Max Wind Speed 12 mph    
Max Gust Speed -    
Visibility 10 miles    
Events      
Averages and records for this station are not official NWS values.
T = Trace of Precipitation, MM = Missing Value Source: NWS Daily Summary

Daily Weather History Graph

Daily Weather History Graph

Search for Another Location

Airport:

Trip Planner

Search our weather history database for the weather conditions in past years. The results will help you decide how hot, cold, wet, or windy it might be!

Date:

Astronomy

Nov. 14, 2010 Rise Set
Actual Time 6:37 AM PST 4:40 PM PST
Civil Twilight 6:08 AM PST 5:09 PM PST
Nautical Twilight 5:36 AM PST 5:41 PM PST
Astronomical Twilight 5:04 AM PST 6:13 PM PST
Moon 12:59 PM PST (11/14) No Moon Set
Length of Visible Light 11h 00m
Length of Day
10h 02m
First Quarter, 61% of the Moon is Illuminated
Nov 14
First Quarter
Nov 21
Full
Nov 28
Last Quarter
Dec 5
New
Dec 13
First Quarter

Hourly Weather History & Observations

Time (PST) Temp. Windchill Dew Point Humidity Pressure Visibility Wind Dir Wind Speed Gust Speed Precip Events Conditions
12:56 AM 30.9 °F 26.2 °F 26.1 °F 82% 30.25 in 10.0 mi SSE 4.6 mph - N/A   Clear
1:56 AM 30.0 °F 26.5 °F 25.0 °F 82% 30.25 in 10.0 mi SE 3.5 mph - N/A   Clear
2:56 AM 32.0 °F - 26.1 °F 79% 30.25 in 10.0 mi Calm Calm - N/A   Overcast
3:56 AM 34.0 °F 29.8 °F 28.0 °F 79% 30.23 in 10.0 mi South 4.6 mph - N/A   Overcast
4:56 AM 35.1 °F 31.0 °F 28.9 °F 78% 30.24 in 10.0 mi South 4.6 mph - N/A   Overcast
5:56 AM 35.1 °F 32.2 °F 28.0 °F 76% 30.24 in 10.0 mi SSE 3.5 mph - N/A   Overcast
6:56 AM 35.1 °F 30.1 °F 28.0 °F 76% 30.23 in 10.0 mi SSE 5.8 mph - N/A   Mostly Cloudy
7:56 AM 39.9 °F 35.1 °F 28.0 °F 63% 30.23 in 10.0 mi SSE 6.9 mph - N/A   Overcast
8:56 AM 44.1 °F 40.8 °F 30.0 °F 58% 30.23 in - South 5.8 mph - N/A   Overcast
9:56 AM 46.9 °F - 30.9 °F 54% 30.21 in 10.0 mi South 4.6 mph - N/A   Scattered Clouds
10:56 AM 51.1 °F - 32.0 °F 48% 30.19 in 10.0 mi SE 3.5 mph - N/A   Overcast
11:03 AM 51.8 °F - 32.0 °F 47% 30.31 in 10.0 mi Variable 3.5 mph - N/A   Mostly Cloudy
11:56 AM 54.0 °F - 33.1 °F 45% 30.17 in 10.0 mi South 5.8 mph - N/A   Mostly Cloudy
12:56 PM 55.9 °F - 35.1 °F 45% 30.14 in 10.0 mi Calm Calm - N/A   Overcast
1:56 PM 59.0 °F - 39.0 °F 48% 30.13 in 10.0 mi West 11.5 mph - N/A   Mostly Cloudy
2:56 PM 57.9 °F - 41.0 °F 53% 30.12 in 10.0 mi West 9.2 mph - N/A   Mostly Cloudy
3:56 PM 55.9 °F - 41.0 °F 57% 30.12 in 10.0 mi WNW 9.2 mph - N/A   Mostly Cloudy
4:56 PM 54.0 °F - 41.0 °F 62% 30.12 in 10.0 mi WNW 8.1 mph - N/A   Overcast
5:56 PM 54.0 °F - 41.0 °F 62% 30.13 in 10.0 mi WNW 8.1 mph - N/A   Overcast
6:56 PM 52.0 °F - 41.0 °F 66% 30.13 in 10.0 mi NW 6.9 mph - N/A   Overcast
7:56 PM 53.1 °F - 42.1 °F 66% 30.12 in 10.0 mi Calm Calm - N/A   Overcast
8:56 PM 51.1 °F - 41.0 °F 68% 30.13 in 10.0 mi SW 3.5 mph - N/A   Scattered Clouds
9:56 PM 48.0 °F - 39.9 °F 74% 30.13 in 10.0 mi West 4.6 mph - N/A   Clear
10:56 PM 45.0 °F 43.5 °F 39.0 °F 80% 30.13 in 10.0 mi WSW 3.5 mph - N/A   Clear
11:56 PM 39.0 °F 35.7 °F 35.1 °F 86% 30.13 in 10.0 mi SSE 4.6 mph - N/A   Clear